Kalamazoo, MI

11:49 AM EDT on May 26, 2017 (GMT -0400)
Kalamazoo-Battle Creek International

Weather History for KAZO - May, 2013

Change the Weather History Date:

Thursday, May 9, 2013

  Actual Average Record
Temperature  
Mean Temperature 65 °F 57 °F  
Max Temperature 80 °F 68 °F 86 °F (1963)
Min Temperature 50 °F 46 °F 27 °F (1966)
Degree Days  
Heating Degree Days 0 9  
Month to date heating degree days 6 88  
Since 1 July heating degree days 6138 6231  
Cooling Degree Days 0 1  
Month to date cooling degree days 17 3  
Year to date cooling degree days 19 7  
Growing Degree Days 15 (Base 50)    
Moisture  
Dew Point 51 °F    
Average Humidity 62    
Maximum Humidity 100    
Minimum Humidity 23    
Precipitation  
Precipitation 0.16 in 0.12 in 1.53 in (2004)
Month to date precipitation 0.63 1.08  
Year to date precipitation 12.22 9.65  
Sea Level Pressure  
Sea Level Pressure 29.96 in    
Wind  
Wind Speed 2 mph (SSW)    
Max Wind Speed 25 mph    
Max Gust Speed 35 mph    
Visibility 8 miles    
Events Rain    
T = Trace of Precipitation, MM = Missing Value Source: NWS Daily Summary

Daily Weather History Graph

Daily Weather History Graph

Search for Another Location

Airport or City:

Trip Planner

Search our weather history database for the weather conditions in past years. The results will help you decide how hot, cold, wet, or windy it might be!

Date:

Astronomy

May. 09, 2013 Rise Set
Actual Time 6:27 AM EDT 8:50 PM EDT
Civil Twilight 5:55 AM EDT 9:22 PM EDT
Nautical Twilight 5:16 AM EDT 10:01 PM EDT
Astronomical Twilight 4:33 AM EDT 10:44 PM EDT
Moon 6:11 AM EDT (5/9) 8:44 PM EDT (5/9)
Length of Visible Light 15h 26m
Length of Day
14h 23m
Waning Crescent, 0% of the Moon is Illuminated
May 9
Waning Crescent
May 9
New
May 18
First Quarter
May 25
Full
May 31
Last Quarter

Hourly Weather History & Observations

Time (EDT) Temp. Dew Point Humidity Pressure Visibility Wind Dir Wind Speed Gust Speed Precip Events Conditions
12:17 AM 55.4 °F 53.6 °F 94% 29.99 in 1.8 mi Calm Calm - N/A   Clear
12:33 AM 53.6 °F 53.6 °F 100% 29.98 in 2.5 mi South 4.6 mph - N/A   Clear
12:53 AM 54.0 °F 53.1 °F 97% 29.98 in 10.0 mi South 4.6 mph - N/A   Clear
1:53 AM 55.0 °F 53.1 °F 93% 29.97 in 10.0 mi SSW 3.5 mph - N/A   Clear
2:53 AM 55.9 °F 53.1 °F 90% 29.96 in 10.0 mi Calm Calm - N/A   Clear
3:53 AM 53.1 °F 50.0 °F 89% 29.95 in 10.0 mi Calm Calm - N/A   Clear
4:53 AM 52.0 °F 50.0 °F 93% 29.96 in 10.0 mi Calm Calm - N/A   Clear
5:53 AM 53.1 °F 46.0 °F 77% 29.98 in 10.0 mi Calm Calm - N/A   Clear
6:53 AM 51.1 °F 46.9 °F 86% 29.98 in 10.0 mi Calm Calm - N/A   Clear
7:53 AM 55.9 °F 50.0 °F 80% 29.99 in 10.0 mi Calm Calm - N/A   Clear
8:53 AM 64.0 °F 52.0 °F 65% 29.99 in 10.0 mi Calm Calm - N/A   Clear
9:53 AM 70.0 °F 50.0 °F 49% 29.99 in 10.0 mi Calm Calm - N/A   Clear
10:53 AM 72.0 °F 50.0 °F 46% 29.98 in 10.0 mi Calm Calm - N/A   Clear
11:53 AM 73.9 °F 48.0 °F 40% 29.99 in 10.0 mi Calm Calm - N/A   Clear
12:53 PM 73.4 °F 48.2 °F 41% 29.99 in 10.0 mi South 3.5 mph - N/A   Clear
1:53 PM 78.1 °F 46.0 °F 32% 29.97 in 10.0 mi Calm Calm - N/A   Clear
2:53 PM 79.0 °F 37.9 °F 23% 29.95 in 10.0 mi Calm Calm - N/A   Clear
3:53 PM 78.8 °F 44.6 °F 30% 29.93 in 10.0 mi Variable 3.5 mph - N/A   Scattered Clouds
4:53 PM 78.1 °F 43.0 °F 29% 29.91 in 10.0 mi Calm Calm - N/A   Scattered Clouds
5:53 PM 75.0 °F 46.9 °F 37% 29.90 in 10.0 mi SSW 3.5 mph - N/A   Overcast
6:53 PM 64.0 °F 57.9 °F 80% 29.95 in 6.0 mi West 6.9 mph - 0.09 in Rain Light Rain
7:53 PM 63.0 °F 59.0 °F 87% 29.94 in 6.0 mi NE 3.5 mph - 0.03 in   Overcast
8:53 PM 63.0 °F 60.1 °F 90% 29.93 in 7.0 mi West 3.5 mph - N/A   Overcast
9:53 PM 62.1 °F 60.1 °F 93% 29.92 in 4.0 mi Calm Calm - N/A   Mostly Cloudy
10:53 PM 62.1 °F 60.1 °F 93% 29.90 in 4.0 mi Calm Calm - N/A   Overcast
11:53 PM 61.0 °F 60.1 °F 97% 29.90 in 3.0 mi South 4.6 mph - 0.02 in Rain Light Rain